Flugplatz Burg Feuerstein
 
.... wo jeder bestens aufgehoben ist! 

 

DSC04520

 


Täglich sind wir von 08.30 bis 12.30 Uhr und von 13.00 bis 16.45 Uhr unter 09194 - 79 75 75 

oder 

rund um die Uhr per Diese E-Mail-Adresse ist vor Spambots geschützt! Zur Anzeige muss JavaScript eingeschaltet sein! zu erreichen!

 

Flugbetrieb an jedem fliegbaren Tag von 9 Uhr bis 18 Uhr - nach Absprache auch flexibel darüber hinaus ! 

 


 
 

Wir bieten professionelle und trotzdem sehr günstige Ausbildung in 4 Sparten an:

Motorflug Motorsegler Segelflug Ultraleicht

Bei unseren Gebühren gibt keine „versteckten Kosten“ wie

  • Baustunden oder finanzielle Ausgleiche dafür
  • Verpflichtung zu Diensten oder finanzielle Ausgleiche dafür
  • Umschulungs- oder Typengebühren

Ebenso gibt es bei uns keinerlei zeitlicher Verpflichtungen zur Teilnahme am Flugbetrieb!

Kümmern Sie sich nur um Ihre fliegerischen Ambitionen – wir unterstützen Sie dabei professionell, individuell, zielorientiert und maximal flexibel!

Feuerstein News Ticker

Webcam Blick N

webcam 2

Webcam Blick NO

webcam 1

METAR EDDN

[Quelle: ADDS]
METAR
EDDN 210620Z 27013KT 9999 -RA FEW009 BKN011 BKN027 13/11 Q1003 TEMPO RA BKN008 =
EDDN 210500Z 2106/2206 28012G25KT 9999 SCT006 OVC015 TEMPO 2106/2112 4000 RADZ BKN006 PROB30 TEMPO 2112/2118 33020G30KT 4000 TSRA BKN006 BKN012CB BECMG 2118/2121 28010KT 4000 -RADZ OVC006
TAF
EDDN 210500Z 2106/2206 28012G25KT 9999 SCT006 OVC015 TEMPO 2106/2112 4000 RADZ BKN006 PROB30 TEMPO 2112/2118 33020G30KT 4000 TSRA BKN006 BKN012CB BECMG 2118/2121 28010KT 4000 -RADZ OVC006 =
SR / SS: 03:22 / 19:01 UTC (EDQE 2019-05-21)

Wetter EDQE


Das Wetter heute
Das Wetter morgen